Погода в Педасельге

Россия / Республика Карелия     61°32′25″N   34°41′10″E
темп.,
°C
ветер,
м/с
пор.,
м/с
влажн.,
%
обл.,
%
осадки,
мм/ч
давл.,
гПа
погр.,
м
17 мая, вт
вт1700:00+3сз4991100 0.0 1008245
03:00+3ссз51088100 0.0 1008314
06:00+2с61097100 1.5 1009286
09:00+2ссв5995100 4.3 1011247
12:00+5ссв697658 0.0 1012526
15:00+6с696462 0.0 1013545
18:00+6с6116862 0.0 1014461
21:00+4с61278100 0.0 1016385
18 мая, ср
ср1800:00+3с488259 0.0 1016342
03:00+2ссз4891100 0.0 1016227
06:00+2сз3686100 0.0 1016322
09:00+3з389781 0.7 1015361
12:00+4с248491 0.3 1014505
15:00+5ссз2481100 0.4 1013681
18:00+4ссв1397100 2.0 1014311
21:00+4з229396 2.1 101314
19 мая, чт
чт1900:00+3с489899 0.3 1014352
03:00+1ссз359571 0.3 1015214
06:00+2ссз36925 0.0 1016254
09:00+4ссз46743 0.0 1017687
12:00+5с476389 0.0 1018962
15:00+5ссв466389 0.0 1019805
18:00+5ссв466420 0.0 1020669
21:00+3с227420 0.0 102123
20 мая, пт
пт2000:00+1с227996 0.0 102112
03:00+1с11835 0.0 102210
06:00+2ссв12775 0.0 102296
09:00+4св22655 0.0 1022587
12:00+5св33605 0.0 1021726
15:00+5ссв33563 0.0 1020651
18:00+5ссв23565 0.0 1019443
21:00+3ссв22665 0.0 101823
21 мая, сб
сб2100:00+2ссв24785 0.0 101766
03:00+1св24845 0.0 101769
06:00+2ссв34790 0.0 1018127
09:00+3св35705 0.0 1017375
12:00+4ссв456312 0.0 1016587
15:00+5ссв34525 0.0 1015597
18:00+5с23495 0.0 1014360
21:00+4ссв22585 0.0 101420